sat.trackr.live / text

‹ back to catalog

SHIJIAN-6 02B (SJ-6 02B)

NORAD 29506 · 2006-046B

PAYLOAD ACTIVE UNKNOWN

§ Identity

Operator
Country
PRC
Launch date
2006-10-23
Launch site
TAISC
Launch vehicle
Mass (kg)
RCS (m²)
2.48

Purposes: science

External: N2YO · Heavens-Above · Gunter

§ Orbital elements

Epoch: 2026-09-14T21:58:43.030848Z

Period
95.91 min
Inclination
97.6981°
Eccentricity
0.0016062
Mean motion
15.01476903 rev/d
Perigee alt
551.2 km
Apogee alt
573.5 km
Semi-major
6,940.5 km
B*
9.0220e-6
RAAN
286.3603°
Arg perigee
126.0056°
Mean anomaly
234.2660°
Rev number
8,420

§ Raw data

SHIJIAN-6 02B (SJ-6 02B)1 29506U 06046B   26257.91577582  .00000056  00000+0  90220-5 0  99922 29506  97.6981 286.3603 0016062 126.0056 234.2660 15.01476903 84200

JSON: /api/v1/satellites/29506 · /tle

For live sub-satellite position, see the globe view (requires WebGL).

§ Visibility from observer

Set your observer location to see the next 7 days of passes ≥ 10°. The values pass through the URL so the page stays shareable.

No JS? Fill the form by hand. The geolocation button needs JavaScript.

§ Radio — SatNOGS DB

ModeDescriptionDownlinkUplink
FM S-band telemetry 2.256 GHz

1 transmitter · refreshed weekly from db.satnogs.org